Regional Weather Roundup
Issued by NWS Jackson, KY

Home | Current Version | Previous Version | Text Only | Print | Product List | Glossary On
Versions: 1 2 3 4 5 6 7 8 9 10 11 12 13 14 15 16 17 18 19 20 21 22 23 24 25 26
000
ASUS43 KJKL 280210
RWRJKL

EAST KENTUCKY HOURLY WEATHER ROUNDUP
NATIONAL WEATHER SERVICE JACKSON KY
1000 PM EDT THU JUL 27 2017

NOTE: "FAIR" INDICATES FEW OR NO CLOUDS BELOW 12,000 FEET WITH
NO SIGNIFICANT WEATHER AND/OR OBSTRUCTIONS TO VISIBILITY.

* THESE REPORTS ARE NOT UNDER NWS QUALITY CONTROL AND MAY NOT
  REPORT WEATHER SUCH AS PRECIPITATION AND FOG.

KYZ079-080-083-085-087-088-110-112-115-119-120-280300
...EASTERN KENTUCKY...

CITY           SKY/WX    TMP DP  RH WIND       PRES   REMARKS
JACKSON        CLOUDY    70  69  97 CALM      29.96R FOG
LONDON         LGT RAIN  71  69  93 SE3       29.97S
SOMERSET*      LGT RAIN  70  70 100 CALM      29.97S
MONTICELLO*    LGT RAIN  73  72  96 VRB3      29.97S
WILLIAMSBURG*  CLOUDY    72  72 100 NE7       29.97R
MIDDLESBORO*   HVY RAIN  72  72 100 CALM      30.00R
HARLAN APT*    CLOUDY    70  68  94 CALM      30.00R
PIKE CO APT*   CLOUDY    69  69 100 S3        29.96S
BIG SANDY APT* CLOUDY    71  71 100 S5        29.95R
MOREHEAD APT*  CLOUDY    72  70  94 S5        29.93R
$$

KYZ035-036-041-042-044-050-067-078-099-280300
...CENTRAL KENTUCKY...

CITY           SKY/WX    TMP DP  RH WIND       PRES   REMARKS
MT STERLING*   MOCLDY    72  72 100 W9        29.93F
FLEMING/MASON* LGT RAIN  73  72  98 S7        29.91R
DANVILLE*      CLOUDY    70  70 100 CALM      29.95R
LEXINGTON      LGT RAIN  73  70  90 S13       29.91F
FRANKFORT      MOCLDY    75  70  84 SW8       29.89S
LOUISVILLE     CLOUDY    81  74  79 SW9       29.87S
LEBANON*         N/A     72  72 100 CALM      29.92F
GLASGOW*       CLOUDY    73  73 100 CALM      29.91S
BOWLING GREEN  CLOUDY    76  74  93 SW9       29.91S
$$

KYZ091>093-OHZ055-061-077-WVZ005-015-034-035-042-280300
...SOUTHERN OHIO/WEST VIRGINIA...

CITY           SKY/WX    TMP DP  RH WIND       PRES   REMARKS
COVINGTON      LGT RAIN  73  73 100 W3        29.88F
COLUMBUS       CLOUDY    71  71 100 NE5       29.88R
DAYTON         LGT RAIN  75  72  90 W6        29.89S
WILMINGTON     MOCLDY    74  73  97 W7        29.88S
HUNTINGTON     CLOUDY    72  70  93 SE6       29.90F
CHARLESTON     CLOUDY    72  69  90 S7        29.93R
PINEVILLE*     CLOUDY    70  69  96 MISG      30.04R FOG
BECKLEY        CLOUDY    68  65  90 S7        30.02R
BLUEFIELD      CLOUDY    66  64  93 SW5       30.06S
LOGAN CO APT*  MOCLDY    70  68  94 CALM      29.98R
$$

VAZ002-007-008-TNZ017-027-036-066-071-280300
...SOUTHWEST VIRGINIA/EAST TENNESSEE...

CITY           SKY/WX    TMP DP  RH WIND       PRES   REMARKS
WISE*          LGT RAIN  68  68 100 SE3       30.06F
JONESVILLE*    MOCLDY    72  72 100 CALM      30.01S
ABINGDON*      CLOUDY    72  70  93 CALM      30.02F
BRISTOL        CLOUDY    72  71  97 CALM      29.99F
MORRISTOWN*    MOCLDY    77  70  78 S5        29.96F
SEVIERVILLE*   MOCLDY    75  70  83 CALM      29.95F
KNOXVILLE      LGT RAIN  77  72  84 CALM      29.94F
LAFOLLETTE*    MOCLDY    75  73  94 CALM      29.99F
OAK RIDGE      CLOUDY    76  73  91 CALM      29.96S
CROSSVILLE     CLOUDY    76  70  82 CALM      30.00F
NASHVILLE      CLOUDY    85  73  67 SW3       29.91F HX  91
$$

...KEY TO REMARKS...
VSB - VISIBILITY IN MILES
WCI - WIND CHILL INDEX
HX  - HEAT INDEX

$$




USA.gov is the U.S. government's official web portal to all federal, state and local government web resources and services.